FW0209 Weather Reports


time (UTC)temp
C
wind
direction
speed
KPH
gust
KPH
rain 1hr
cm
rain 24hr
cm
rain mn
cm
humidity
%
barometer
mb
20260901081522 25 94 1.6 6.4 0.00 0.00 0.00 55 1023.4
20260901080033 25 94 4.8 11.3 0.00 0.00 0.00 55 1023.5
20260901074539 25 22 3.2 6.4 0.00 0.00 0.00 55 1023.3
20260901073021 24 360 0.0 4.8 0.00 0.00 0.00 58 1023.3
20260901071518 23 360 0.0 4.8 0.00 0.00 0.00 60 1023.4
20260901070025 23 300 0.0 4.8 0.00 0.00 0.00 61 1023.3
20260901064535 22 300 0.0 3.2 0.00 0.00 0.00 63 1023.5
20260901063025 21 298 0.0 1.6 0.00 0.00 0.00 66 1023.5
20260901061515 20 351 0.0 1.6 0.00 0.00 0.00 68 1023.4
20260901060046 19 308 0.0 4.8 0.00 0.00 0.00 70 1023.4
20260901054520 18 295 0.0 1.6 0.00 0.00 0.00 72 1023.2
20260901053020 17 297 0.0 0.0 0.00 0.00 0.00 74 1023.3
20260901051528 17 283 0.0 1.6 0.00 0.00 0.00 74 1023.1
20260901050019 16 349 0.0 1.6 0.00 0.00 0.00 74 1023.1
20260901044530 16 323 0.0 8.0 0.00 0.00 0.00 74 1023.1
20260901043019 16 316 0.0 1.6 0.00 0.00 0.00 75 1023.0
20260901041516 16 290 3.2 8.0 0.00 0.00 0.00 75 1022.9
20260901040026 17 355 3.2 8.0 0.00 0.00 0.00 73 1022.9
20260901034538 17 355 0.0 4.8 0.00 0.00 0.00 72 1022.9
20260901033030 17 355 3.2 6.4 0.00 0.00 0.00 70 1022.9
20260901031520 17 355 3.2 8.0 0.00 0.00 0.00 71 1023.0
20260901030026 17 355 1.6 3.2 0.00 0.00 0.00 70 1023.0
20260901024518 17 355 0.0 1.6 0.00 0.00 0.00 70 1022.9
20260901023022 17 351 0.0 4.8 0.00 0.00 0.00 70 1022.9
20260901021521 18 351 0.0 0.0 0.00 0.00 0.00 69 1022.7
20260901020031 18 351 0.0 4.8 0.00 0.00 0.00 69 1022.7
20260901014520 18 351 1.6 6.4 0.00 0.00 0.00 69 1022.7
20260901013023 18 265 0.0 6.4 0.00 0.00 0.00 68 1022.6
20260901011519 18 267 0.0 1.6 0.00 0.00 0.00 68 1022.6
20260901010026 18 267 3.2 4.8 0.00 0.00 0.00 68 1022.6
20260901004536 18 266 1.6 4.8 0.00 0.00 0.00 67 1022.5
20260901003025 18 269 3.2 9.7 0.00 0.00 0.00 66 1022.4
20260901001534 19 269 3.2 4.8 0.00 0.00 0.00 65 1022.4
20260901000044 19 270 0.0 6.4 0.00 0.00 0.00 64 1022.3
20260831234556 20 274 3.2 9.7 0.00 0.00 0.00 63 1022.3
20260831233024 20 282 0.0 4.8 0.00 0.00 0.00 62 1022.3
20260831231516 20 281 8.0 14.5 0.00 0.00 0.00 62 1022.1
20260831230024 20 279 4.8 11.3 0.00 0.00 0.00 63 1022.0
20260831224519 20 279 3.2 6.4 0.00 0.00 0.00 62 1021.9
20260831223027 21 280 4.8 6.4 0.00 0.00 0.00 62 1021.9
20260831221523 21 284 0.0 6.4 0.00 0.00 0.00 61 1021.9
20260831220052 21 281 6.4 11.3 0.00 0.00 0.00 61 1021.9
20260831214534 22 282 3.2 4.8 0.00 0.00 0.00 59 1021.8
20260831213021 22 280 0.0 1.6 0.00 0.00 0.00 57 1021.5
20260831211516 22 282 0.0 4.8 0.00 0.00 0.00 56 1021.5
20260831210105 23 281 4.8 6.4 0.00 0.00 0.00 55 1021.4
20260831204535 23 282 4.8 8.0 0.00 0.00 0.00 55 1021.3
20260831203026 23 284 3.2 11.3 0.00 0.00 0.00 55 1021.3
20260831201517 23 360 8.0 16.1 0.00 0.00 0.00 55 1021.3
20260831200106 23 281 9.7 14.5 0.00 0.00 0.00 54 1021.0
20260831194539 25 294 4.8 12.9 0.00 0.00 0.00 53 1020.8
20260831193029 24 251 9.7 16.1 0.00 0.00 0.00 53 1020.6
20260831191540 25 251 6.4 14.5 0.00 0.00 0.00 51 1020.6
20260831190030 25 246 11.3 14.5 0.00 0.00 0.00 49 1020.6
20260831184534 26 235 8.0 16.1 0.00 0.00 0.00 48 1020.4
20260831183022 26 232 8.0 14.5 0.00 0.00 0.00 45 1020.3
20260831181515 26 273 8.0 17.7 0.00 0.00 0.00 45 1020.3
20260831180041 26 265 11.3 16.1 0.00 0.00 0.00 44 1020.2
20260831174547 27 258 11.3 16.1 0.00 0.00 0.00 42 1020.1
20260831173053 28 251 4.8 16.1 0.00 0.00 0.00 39 1020.1
20260831171523 28 254 14.5 25.7 0.00 0.00 0.00 38 1019.9
20260831170030 29 282 12.9 22.5 0.00 0.00 0.00 37 1019.9
20260831164604 29 298 9.7 24.1 0.00 0.00 0.00 37 1019.9
20260831163042 30 319 16.1 24.1 0.00 0.00 0.00 37 1019.9
20260831161551 30 327 17.7 29.0 0.00 0.00 0.00 36 1020.0
20260831160056 30 348 11.3 29.0 0.00 0.00 0.00 36 1019.9
20260831154605 30 180 17.7 32.2 0.00 0.00 0.00 37 1019.9
20260831153029 30 280 16.1 27.4 0.00 0.00 0.00 40 1019.8
20260831151519 31 310 16.1 27.4 0.00 0.00 0.00 41 1019.8
20260831150026 31 317 11.3 30.6 0.00 0.00 0.00 44 1019.7
20260831144521 31 295 9.7 22.5 0.00 0.00 0.00 45 1019.6
20260831143030 31 350 14.5 22.5 0.00 0.00 0.00 46 1019.5
20260831141538 32 232 8.0 17.7 0.00 0.00 0.00 46 1019.6
20260831140028 31 202 6.4 20.9 0.00 0.00 0.00 45 1019.5
20260831134522 31 225 12.9 20.9 0.00 0.00 0.00 43 1019.4
20260831133027 31 249 9.7 16.1 0.00 0.00 0.00 43 1019.5
20260831131522 31 360 1.6 14.5 0.00 0.00 0.00 39 1019.5
20260831130034 32 276 9.7 17.7 0.00 0.00 0.00 39 1019.6
20260831124536 31 210 9.7 16.1 0.00 0.00 0.00 41 1019.9
20260831123024 31 242 8.0 19.3 0.00 0.00 0.00 41 1019.8
20260831121531 31 211 6.4 19.3 0.00 0.00 0.00 41 1019.9
20260831120110 31 223 9.7 19.3 0.00 0.00 0.00 41 1019.9
20260831114619 31 234 3.2 22.5 0.00 0.00 0.00 44 1020.0
20260831113045 31 253 6.4 16.1 0.00 0.00 0.00 43 1020.0
20260831111539 31 221 8.0 16.1 0.00 0.00 0.00 39 1020.0
20260831110025 30 255 4.8 12.9 0.00 0.00 0.00 42 1020.1
20260831104555 30 242 6.4 16.1 0.00 0.00 0.00 43 1020.3
20260831103058 30 253 6.4 11.3 0.00 0.00 0.00 46 1020.3
20260831101520 29 242 4.8 14.5 0.00 0.00 0.00 47 1020.4
20260831100048 29 288 3.2 8.0 0.00 0.00 0.00 51 1020.4
20260831094517 29 258 0.0 6.4 0.00 0.00 0.00 53 1020.4
20260831093110 29 288 1.6 3.2 0.00 0.00 0.00 55 1020.6
20260831091539 28 287 4.8 8.0 0.00 0.00 0.00 58 1020.8
20260831090118 28 287 0.0 4.8 0.00 0.00 0.00 61 1021.1
20260831084521 27 288 1.6 4.8 0.00 0.00 0.00 62 1021.0
20260831083032 27 290 0.0 6.4 0.00 0.00 0.00 64 1021.0